Simultaneous Nadir Overpasses (SNOs) Predictions

Prediction of SNOs between AURA and NPP Satellite Orbit:

Table of predicted SNOs for the next 14.0 days since TLE Epoch: 8/26/2023
Index Date (AURA) Time (AURA) Lat,Lon (AURA) SZA (AURA ) Date (NPP) Time (NPP) Lat,Lon (NPP) SZA (NPP ) Distance(km) Time Diff (sec)
1 08/28/2023 03:24:02 79.92, 29.62 82.03 08/28/2023 03:23:37 79.92, 29.59 82.06 0.70 25
2 08/28/2023 04:13:22 -80.13,-160.99 98.29 08/28/2023 04:14:15 -80.14,-160.85 98.36 2.82 53
3 08/30/2023 18:00:12 79.87, 170.18 82.99 08/30/2023 17:59:02 79.88, 170.32 83.02 2.87 70
4 08/30/2023 18:49:34 -80.01, -21.02 97.23 08/30/2023 18:49:43 -80.01, -21.01 97.23 0.14 9
5 09/02/2023 09:25:43 -79.93, 119.29 96.21 09/02/2023 09:25:08 -79.94, 119.40 96.20 2.15 35
6 09/02/2023 10:15:03 80.09, -71.71 83.55 09/02/2023 10:15:47 80.09, -71.73 83.53 0.57 44
7 09/05/2023 00:51:13 79.98, 68.32 84.64 09/05/2023 00:51:14 79.98, 68.31 84.64 0.34 1
8 09/07/2023 15:27:22 79.87,-151.58 85.73 09/07/2023 15:26:41 79.87,-151.67 85.77 1.64 41



Historial Predications of SNOs between AURA and NPP
